Madison, MN

6:28 PM CST on November 11, 2019 (GMT -0600)
Madison-Lac Qui Parle County

Weather History for KDXX - September, 2019

Change the Weather History Date:

Sunday, September 22, 2019

  Actual Average (KAQP) Record (KAQP)
Temperature  
Mean Temperature 62 °F -  
Max Temperature 69 °F 67 °F 91 °F (2017)
Min Temperature 55 °F 42 °F 33 °F (1998)
Degree Days  
Heating Degree Days 3    
Growing Degree Days 12 (Base 50)    
Moisture  
Dew Point 54 °F    
Average Humidity 76    
Maximum Humidity 94    
Minimum Humidity 46    
Precipitation  
Precipitation 0.00 in - - ()
Sea Level Pressure  
Sea Level Pressure 29.90 in    
Wind  
Wind Speed 5 mph (West)    
Max Wind Speed 13 mph    
Max Gust Speed -    
Visibility 10 miles    
Events      
Averages and records for this station are not official NWS values.
T = Trace of Precipitation, MM = Missing Value Source: NWS Daily Summary

Daily Weather History Graph

Daily Weather History Graph

Search for Another Location

Airport or City:

Astronomy

Sep. 22, 2019 Rise Set
Actual Time 7:11 AM CDT 7:22 PM CDT
Civil Twilight 6:42 AM CDT 7:51 PM CDT
Nautical Twilight 6:07 AM CDT 8:26 PM CDT
Astronomical Twilight 5:32 AM CDT 9:01 PM CDT
Moon No Moon Rise 3:35 PM CDT (9/22)
Length of Visible Light 13h 09m
Length of Day
12h 11m
Last Quarter, 44% of the Moon is Illuminated
Sep 22
Last Quarter
Sep 28
New
Oct 5
First Quarter
Oct 13
Full
Oct 21
Last Quarter

Hourly Weather History & Observations

Time (CDT) Temp. Dew Point Humidity Pressure Visibility Wind Dir Wind Speed Gust Speed Precip Events Conditions
12:17 AM 60.8 °F 55.4 °F 82% 29.86 in 10.0 mi WSW 3.5 mph - N/A   Clear
12:36 AM 59.0 °F 55.4 °F 88% 29.86 in 10.0 mi West 5.8 mph - N/A   Clear
12:55 AM 60.8 °F 55.4 °F 82% 29.86 in 10.0 mi West 9.2 mph - N/A   Clear
12:56 AM 60.8 °F 55.4 °F 82% 29.86 in 10.0 mi West 9.2 mph - N/A   Clear
1:15 AM 60.8 °F 55.4 °F 82% 29.85 in 10.0 mi WNW 11.5 mph - N/A   Clear
1:37 AM 60.8 °F 55.4 °F 82% 29.86 in 10.0 mi West 9.2 mph - N/A   Clear
1:56 AM 59.0 °F 55.4 °F 88% 29.85 in 10.0 mi WNW 9.2 mph - N/A   Clear
2:15 AM 60.8 °F 55.4 °F 82% 29.85 in 10.0 mi WNW 11.5 mph - N/A   Clear
2:16 AM 60.8 °F 55.4 °F 82% 29.85 in 10.0 mi WNW 11.5 mph - N/A   Clear
2:35 AM 60.8 °F 55.4 °F 82% 29.85 in 10.0 mi WNW 8.1 mph - N/A   Clear
2:36 AM 60.8 °F 55.4 °F 82% 29.85 in 10.0 mi WNW 9.2 mph - N/A   Clear
2:59 AM 60.8 °F 55.4 °F 82% 29.85 in 10.0 mi WNW 12.7 mph - N/A   Clear
3:16 AM 60.8 °F 55.4 °F 82% 29.85 in 10.0 mi NW 9.2 mph - N/A   Clear
3:36 AM 60.8 °F 55.4 °F 82% 29.86 in 10.0 mi WNW 8.1 mph - N/A   Clear
3:55 AM 59.0 °F 55.4 °F 88% 29.86 in 10.0 mi WNW 8.1 mph - N/A   Clear
4:15 AM 57.2 °F 55.4 °F 94% 29.88 in 10.0 mi WNW 5.8 mph - N/A   Clear
4:19 AM 57.2 °F 55.4 °F 94% 29.88 in 10.0 mi WNW 5.8 mph - N/A   Clear
4:38 AM 57.2 °F 55.4 °F 94% 29.89 in 10.0 mi Calm Calm - N/A   Clear
4:55 AM 57.2 °F 55.4 °F 94% 29.89 in 10.0 mi WNW 4.6 mph - N/A   Clear
5:15 AM 57.2 °F 55.4 °F 94% 29.88 in 10.0 mi NW 5.8 mph - N/A   Clear
5:16 AM 57.2 °F 55.4 °F 94% 29.88 in 10.0 mi NW 5.8 mph - N/A   Clear
5:35 AM 57.2 °F 55.4 °F 94% 29.88 in 10.0 mi NW 6.9 mph - N/A   Clear
5:58 AM 57.2 °F 53.6 °F 88% 29.88 in 10.0 mi NW 5.8 mph - N/A   Clear
6:16 AM 57.2 °F 53.6 °F 88% 29.89 in 10.0 mi NW 5.8 mph - N/A   Clear
6:35 AM 57.2 °F 55.4 °F 94% 29.90 in 10.0 mi NW 9.2 mph - N/A   Clear
6:36 AM 57.2 °F 53.6 °F 88% 29.90 in 10.0 mi WNW 9.2 mph - N/A   Clear
6:55 AM 57.2 °F 53.6 °F 88% 29.91 in 10.0 mi Calm Calm - N/A   Clear
6:56 AM 57.2 °F 53.6 °F 88% 29.91 in 10.0 mi Calm Calm - N/A   Clear
7:15 AM 57.2 °F 53.6 °F 88% 29.91 in 10.0 mi NW 4.6 mph - N/A   Clear
7:20 AM 57.2 °F 53.6 °F 88% 29.91 in 10.0 mi NW 3.5 mph - N/A   Clear
7:37 AM 57.2 °F 53.6 °F 88% 29.92 in 10.0 mi Calm Calm - N/A   Clear
7:55 AM 57.2 °F 53.6 °F 88% 29.93 in 10.0 mi Calm Calm - N/A   Clear
8:15 AM 57.2 °F 55.4 °F 94% 29.94 in 10.0 mi West 3.5 mph - N/A   Clear
8:36 AM 57.2 °F 55.4 °F 94% 29.94 in 10.0 mi Calm Calm - N/A   Clear
8:58 AM 59.0 °F 55.4 °F 88% 29.94 in 10.0 mi Calm Calm - N/A   Clear
9:17 AM 59.0 °F 53.6 °F 82% 29.94 in 10.0 mi SW 3.5 mph - N/A   Clear
9:36 AM 59.0 °F 53.6 °F 82% 29.93 in 10.0 mi Calm Calm - N/A   Clear
9:55 AM 59.0 °F 53.6 °F 82% 29.91 in 10.0 mi Calm Calm - N/A   Clear
9:56 AM 59.0 °F 53.6 °F 82% 29.91 in 10.0 mi Calm Calm - N/A   Clear
10:15 AM 60.8 °F 53.6 °F 77% 29.91 in 10.0 mi Calm Calm - N/A   Clear
10:37 AM 60.8 °F 53.6 °F 77% 29.91 in 10.0 mi Calm Calm - N/A   Clear
10:56 AM 62.6 °F 53.6 °F 72% 29.91 in 10.0 mi NW 3.5 mph - N/A   Clear
11:15 AM 62.6 °F 53.6 °F 72% 29.91 in 10.0 mi WNW 3.5 mph - N/A   Clear
11:16 AM 62.6 °F 53.6 °F 72% 29.91 in 10.0 mi West 4.6 mph - N/A   Clear
11:35 AM 64.4 °F 53.6 °F 68% 29.91 in 10.0 mi NW 6.9 mph - N/A   Clear
11:36 AM 64.4 °F 53.6 °F 68% 29.91 in 10.0 mi WNW 6.9 mph - N/A   Clear
11:59 AM 64.4 °F 53.6 °F 68% 29.91 in 10.0 mi NW 5.8 mph - N/A   Clear
12:16 PM 64.4 °F 53.6 °F 68% 29.92 in 10.0 mi NW 5.8 mph - N/A   Clear
12:36 PM 64.4 °F 53.6 °F 68% 29.91 in 10.0 mi WNW 6.9 mph - N/A   Clear
12:55 PM 64.4 °F 51.8 °F 64% 29.91 in 10.0 mi West 4.6 mph - N/A   Clear
12:56 PM 64.4 °F 51.8 °F 64% 29.91 in 10.0 mi West 4.6 mph - N/A   Clear
1:15 PM 66.2 °F 51.8 °F 60% 29.91 in 10.0 mi Calm Calm - N/A   Clear
1:19 PM 66.2 °F 51.8 °F 60% 29.91 in 10.0 mi Calm Calm - N/A   Clear
1:38 PM 66.2 °F 53.6 °F 64% 29.90 in 10.0 mi Calm Calm - N/A   Clear
1:55 PM 66.2 °F 51.8 °F 60% 29.90 in 10.0 mi Calm Calm - N/A   Clear
2:15 PM 66.2 °F 53.6 °F 64% 29.89 in 10.0 mi Calm Calm - N/A   Clear
2:16 PM 66.2 °F 53.6 °F 64% 29.89 in 10.0 mi Calm Calm - N/A   Clear
2:35 PM 66.2 °F 53.6 °F 64% 29.89 in 10.0 mi Calm Calm - N/A   Scattered Clouds
2:58 PM 66.2 °F 53.6 °F 64% 29.89 in 10.0 mi South 3.5 mph - N/A   Mostly Cloudy
3:16 PM 66.2 °F 53.6 °F 64% 29.88 in 10.0 mi SE 5.8 mph - N/A   Scattered Clouds
3:35 PM 68.0 °F 53.6 °F 60% 29.88 in 10.0 mi SSE 3.5 mph - N/A   Scattered Clouds
3:55 PM 68.0 °F 53.6 °F 60% 29.88 in 10.0 mi South 4.6 mph - N/A   Mostly Cloudy
3:56 PM 68.0 °F 53.6 °F 60% 29.88 in 10.0 mi South 5.8 mph - N/A   Mostly Cloudy
4:15 PM 68.0 °F 53.6 °F 60% 29.88 in 10.0 mi South 5.8 mph - N/A   Scattered Clouds
4:20 PM 68.0 °F 53.6 °F 60% 29.88 in 10.0 mi South 5.8 mph - N/A   Scattered Clouds
4:37 PM 68.0 °F 53.6 °F 60% 29.88 in 10.0 mi South 3.5 mph - N/A   Scattered Clouds
4:55 PM 68.0 °F 53.6 °F 60% 29.88 in 10.0 mi Calm Calm - N/A   Scattered Clouds
5:15 PM 69.8 °F 53.6 °F 56% 29.88 in 10.0 mi South 4.6 mph - N/A   Mostly Cloudy
5:35 PM 69.8 °F 53.6 °F 56% 29.89 in 10.0 mi SE 4.6 mph - N/A   Overcast
5:36 PM 69.8 °F 53.6 °F 56% 29.89 in 10.0 mi SE 4.6 mph - N/A   Overcast
5:58 PM 69.8 °F 53.6 °F 56% 29.89 in 10.0 mi Calm Calm - N/A   Mostly Cloudy
6:17 PM 69.8 °F 48.2 °F 46% 29.89 in 10.0 mi WNW 3.5 mph - N/A   Scattered Clouds
6:36 PM 68.0 °F 50.0 °F 52% 29.89 in 10.0 mi West 4.6 mph - N/A   Clear
6:55 PM 66.2 °F 51.8 °F 60% 29.89 in 10.0 mi West 3.5 mph - N/A   Clear
6:56 PM 66.2 °F 51.8 °F 60% 29.89 in 10.0 mi West 3.5 mph - N/A   Clear
7:15 PM 64.4 °F 51.8 °F 64% 29.89 in 10.0 mi West 3.5 mph - N/A   Clear
7:37 PM 64.4 °F 51.8 °F 64% 29.90 in 10.0 mi West 3.5 mph - N/A   Clear
7:56 PM 62.6 °F 51.8 °F 68% 29.90 in 10.0 mi WSW 3.5 mph - N/A   Clear
8:15 PM 62.6 °F 51.8 °F 68% 29.91 in 10.0 mi WSW 3.5 mph - N/A   Clear
8:16 PM 62.6 °F 51.8 °F 68% 29.91 in 10.0 mi WSW 3.5 mph - N/A   Clear
8:35 PM 59.0 °F 51.8 °F 77% 29.91 in 10.0 mi Calm Calm - N/A   Clear
8:36 PM 59.0 °F 51.8 °F 77% 29.91 in 10.0 mi Calm Calm - N/A   Clear
8:59 PM 59.0 °F 51.8 °F 77% 29.91 in 10.0 mi SW 4.6 mph - N/A   Clear
9:16 PM 57.2 °F 51.8 °F 82% 29.92 in 10.0 mi WSW 5.8 mph - N/A   Clear
9:36 PM 57.2 °F 51.8 °F 82% 29.92 in 10.0 mi SW 6.9 mph - N/A   Clear
9:55 PM 57.2 °F 51.8 °F 82% 29.93 in 10.0 mi SW 6.9 mph - N/A   Clear
10:15 PM 57.2 °F 51.8 °F 82% 29.93 in 10.0 mi SW 5.8 mph - N/A   Clear
10:19 PM 57.2 °F 51.8 °F 82% 29.93 in 10.0 mi SW 5.8 mph - N/A   Clear
10:38 PM 55.4 °F 51.8 °F 88% 29.93 in 10.0 mi WSW 4.6 mph - N/A   Clear
10:55 PM 55.4 °F 51.8 °F 88% 29.93 in 10.0 mi SW 5.8 mph - N/A   Clear
11:15 PM 57.2 °F 51.8 °F 82% 29.94 in 10.0 mi WSW 3.5 mph - N/A   Clear
11:16 PM 57.2 °F 51.8 °F 82% 29.93 in 10.0 mi WSW 3.5 mph - N/A   Clear
11:35 PM 57.2 °F 51.8 °F 82% 29.93 in 10.0 mi WSW 3.5 mph - N/A   Clear
11:58 PM 55.4 °F 51.8 °F 88% 29.93 in 10.0 mi WSW 3.5 mph - N/A   Clear